Regional Weather Roundup
Issued by NWS

Home | Current Version | Previous Version | Text Only | Print | Product List | Glossary Off
Versions: 1 2 3 4 5 6 7 8 9 10 11 12 13 14 15 16 17 18 19 20 21 22 23 24 25 26 27 28 29 30 31 32 33 34 35 36 37 38 39 40 41 42 43 44 45 46 47 48 49 50

000
ASUS43 KBIS 210902
RWRND

NORTH DAKOTA REGIONAL WEATHER ROUNDUP
NATIONAL WEATHER SERVICE BISMARCK ND
400 AM CDT MON AUG 21 2017

NOTE: "FAIR" INDICATES FEW OR NO CLOUDS BELOW 12,000 FEET WITH NO
SIGNIFICANT WEATHER AND/OR OBSTRUCTIONS TO VISIBILITY.


NDZ001>003-009>011-017-211000-
NORTHWEST NORTH DAKOTA

CITY           SKY/WX    TMP DP  RH WIND       PRES   REMARKS
WILLISTON      PTCLDY    60  46  59 S3        29.95F
MINOT          CLOUDY    60  51  72 VRB6      29.97R
MINOT AFB      CLOUDY    62  47  58 N7        29.98R
$$

NDZ018>021-031>035-040>046-211000-
SOUTHWEST NORTH DAKOTA

CITY           SKY/WX    TMP DP  RH WIND       PRES   REMARKS
BISMARCK       CLOUDY    58  48  69 NW23G32   30.05R
DICKINSON      CLOUDY    59  46  62 SE12      29.98F
GARRISON         N/A     60  50  69 S13       29.97F
HETTINGER ARPT CLOUDY    52  48  86 NW6       29.98S
$$

NDZ004>008-012>016-024-026-027-054-211000-
NORTHEAST NORTH DAKOTA

CITY           SKY/WX    TMP DP  RH WIND       PRES   REMARKS
GRAND FORKS    CLOUDY    53  51  93 S5        29.99S
GRND FRKS AFB  CLOUDY    51  49  92 CALM      29.99F
DEVILS LAKE    CLOUDY    63  54  72 CALM      29.99F
$$

NDZ022-023-025-028>030-036>039-047>053-211000-
SOUTHEAST NORTH DAKOTA

CITY           SKY/WX    TMP DP  RH WIND       PRES   REMARKS
FARGO          MOCLDY    60  55  83 S3        30.00F
JAMESTOWN      CLOUDY    56  54  93 NE6       30.00F
$$





USA.gov is the U.S. government's official web portal to all federal, state and local government web resources and services.